SAS1609 EVRA-EKCH

Flight info

Callsign SAS1609
Flight time 1h 7m
Altitude 38000
Route VALED DCT ADAXA DCT NINTA DCT KOLJA DCT ELVIX L975 TIDVU
Aircraft A20N/M-SDE2E3FGHIRWXY/LB1

Departure

Time 2026-05-04 12:43
Airport Riga International Airport (EVRA)

Arrival

Time 2026-05-04 13:51
Airport Copenhagen Kastrup Airport (EKCH)
Time Latitude Longitude Altitude Speed Heading
2026-05-04 12:13 56.92198 23.97664 44 ft 0 kts
2026-05-04 12:35 56.92174 23.97660 16 ft 4 kts
2026-05-04 12:35 56.92153 23.97656 41 ft 4 kts 353°
2026-05-04 12:35 56.92134 23.97677 42 ft 4 kts 283°
2026-05-04 12:35 56.92132 23.97701 44 ft 1 kts 275°
2026-05-04 12:38 56.92133 23.97690 44 ft 2 kts 275°
2026-05-04 12:38 56.92135 23.97639 44 ft 6 kts 275°
2026-05-04 12:39 56.92140 23.97548 44 ft 9 kts 275°
2026-05-04 12:39 56.92180 23.97467 44 ft 11 kts 350°
2026-05-04 12:39 56.92266 23.97481 44 ft 14 kts
2026-05-04 12:39 56.92376 23.97504 44 ft 18 kts
2026-05-04 12:40 56.92511 23.97532 44 ft 21 kts
2026-05-04 12:40 56.92653 23.97551 44 ft 22 kts
2026-05-04 12:40 56.92815 23.97583 44 ft 25 kts
2026-05-04 12:40 56.92976 23.97608 44 ft 24 kts
2026-05-04 12:41 56.93128 23.97632 42 ft 20 kts
2026-05-04 12:41 56.93268 23.97564 44 ft 22 kts 359°
2026-05-04 12:41 56.93371 23.97582 44 ft 22 kts
2026-05-04 12:41 56.93477 23.97513 44 ft 14 kts 295°
2026-05-04 12:42 56.93492 23.97343 42 ft 11 kts 272°
2026-05-04 12:42 56.93446 23.97289 40 ft 7 kts 175°
2026-05-04 12:42 56.93408 23.97288 44 ft 9 kts 182°
2026-05-04 12:42 56.92948 23.97211 44 ft 92 kts 185°
2026-05-04 12:43 56.92437 23.97129 45 ft 125 kts 184°
2026-05-04 12:43 56.91485 23.96994 374 ft 137 kts 188°
2026-05-04 12:43 56.90532 23.96855 931 ft 140 kts 190°
2026-05-04 12:43 56.89538 23.96697 1491 ft 150 kts 193°
2026-05-04 12:44 56.88442 23.96486 1866 ft 168 kts 193°
2026-05-04 12:44 56.87215 23.96203 2366 ft 186 kts 194°
2026-05-04 12:44 56.85865 23.95863 2880 ft 203 kts 200°
2026-05-04 12:44 56.84658 23.94722 3798 ft 194 kts 225°
2026-05-04 12:45 56.83761 23.92855 4750 ft 199 kts 233°
2026-05-04 12:45 56.82869 23.90831 5647 ft 211 kts 233°
2026-05-04 12:45 56.81932 23.88665 6378 ft 225 kts 233°
2026-05-04 12:45 56.80927 23.86364 7149 ft 235 kts 232°
2026-05-04 12:46 56.79912 23.84018 8183 ft 236 kts 232°
2026-05-04 12:46 56.78889 23.81641 9163 ft 240 kts 232°
2026-05-04 12:46 56.77848 23.79223 10069 ft 246 kts 232°
2026-05-04 12:46 56.76893 23.76501 10469 ft 269 kts 248°
2026-05-04 12:47 56.76520 23.72990 10795 ft 295 kts 261°
2026-05-04 12:47 56.76410 23.69187 11518 ft 303 kts 264°
2026-05-04 12:47 56.76354 23.65306 12332 ft 309 kts 265°
2026-05-04 12:47 56.76282 23.61373 13169 ft 312 kts 264°
2026-05-04 12:48 56.76182 23.57392 13932 ft 316 kts 264°
2026-05-04 12:48 56.76061 23.53379 14691 ft 319 kts 264°
2026-05-04 12:48 56.75927 23.49319 15417 ft 323 kts 264°
2026-05-04 12:48 56.75785 23.45215 16135 ft 326 kts 264°
2026-05-04 12:49 56.75639 23.41061 16833 ft 330 kts 264°
2026-05-04 12:49 56.75491 23.36859 17556 ft 334 kts 264°
2026-05-04 12:49 56.75339 23.32612 18244 ft 338 kts 264°
2026-05-04 12:49 56.75187 23.28335 18883 ft 340 kts 264°
2026-05-04 12:50 56.75032 23.24019 19504 ft 343 kts 264°
2026-05-04 12:50 56.74874 23.19667 20127 ft 346 kts 264°
2026-05-04 12:50 56.74713 23.15279 20737 ft 349 kts 264°
2026-05-04 12:50 56.74549 23.10859 21365 ft 351 kts 263°
2026-05-04 12:51 56.74382 23.06404 21976 ft 354 kts 263°
2026-05-04 12:51 56.74213 23.01916 22568 ft 357 kts 263°
2026-05-04 12:51 56.74041 22.97398 23147 ft 360 kts 263°
2026-05-04 12:51 56.73865 22.92835 23679 ft 362 kts 263°
2026-05-04 12:52 56.73687 22.88244 24193 ft 364 kts 263°
2026-05-04 12:52 56.73506 22.83621 24694 ft 366 kts 263°
2026-05-04 12:52 56.73322 22.78985 25163 ft 369 kts 263°
2026-05-04 12:52 56.73135 22.74305 25626 ft 371 kts 263°
2026-05-04 12:53 56.72945 22.69604 26100 ft 373 kts 263°
2026-05-04 12:53 56.72753 22.64877 26544 ft 376 kts 262°
2026-05-04 12:53 56.72560 22.60182 26979 ft 378 kts 262°
2026-05-04 12:53 56.72362 22.55401 27418 ft 380 kts 262°
2026-05-04 12:54 56.72161 22.50598 27813 ft 382 kts 262°
2026-05-04 12:54 56.71906 22.45767 28200 ft 383 kts 259°
2026-05-04 12:54 56.71436 22.40983 28578 ft 385 kts 256°
2026-05-04 12:54 56.70928 22.36193 28952 ft 387 kts 256°
2026-05-04 12:55 56.70426 22.31370 29313 ft 389 kts 256°
2026-05-04 12:55 56.69924 22.26517 29650 ft 391 kts 256°
2026-05-04 12:55 56.69417 22.21635 29990 ft 394 kts 256°
2026-05-04 12:55 56.68903 22.16727 30282 ft 396 kts 256°
2026-05-04 12:56 56.68384 22.11794 30574 ft 398 kts 257°
2026-05-04 12:56 56.67859 22.06842 30867 ft 401 kts 257°
2026-05-04 12:56 56.67329 22.01861 31218 ft 401 kts 257°
2026-05-04 12:56 56.66797 21.96884 31609 ft 401 kts 257°
2026-05-04 12:57 56.66264 21.91922 31987 ft 400 kts 257°
2026-05-04 12:57 56.65729 21.86957 32369 ft 400 kts 257°
2026-05-04 12:57 56.65193 21.81999 32740 ft 400 kts 257°
2026-05-04 12:57 56.64654 21.77044 33118 ft 399 kts 257°
2026-05-04 12:58 56.64115 21.72108 33471 ft 399 kts 257°
2026-05-04 12:58 56.63573 21.67159 33847 ft 398 kts 257°
2026-05-04 12:58 56.63030 21.62229 34130 ft 398 kts 257°
2026-05-04 12:58 56.62485 21.57294 34406 ft 399 kts 257°
2026-05-04 12:59 56.61938 21.52355 34667 ft 399 kts 257°
2026-05-04 12:59 56.61388 21.47414 34921 ft 400 kts 257°
2026-05-04 12:59 56.60837 21.42478 35168 ft 400 kts 257°
2026-05-04 12:59 56.60282 21.37526 35409 ft 401 kts 257°
2026-05-04 13:00 56.59725 21.32566 35649 ft 401 kts 257°
2026-05-04 13:00 56.59164 21.27605 35886 ft 401 kts 257°
2026-05-04 13:00 56.58603 21.22651 36114 ft 402 kts 257°
2026-05-04 13:00 56.58038 21.17683 36333 ft 402 kts 257°
2026-05-04 13:01 56.57470 21.12710 36548 ft 403 kts 257°
2026-05-04 13:01 56.56899 21.07731 36752 ft 403 kts 257°
2026-05-04 13:01 56.56325 21.02747 36967 ft 404 kts 257°
2026-05-04 13:01 56.55751 20.97772 37168 ft 404 kts 257°
2026-05-04 13:02 56.55171 20.92776 37369 ft 405 kts 257°
2026-05-04 13:02 56.54591 20.87792 37554 ft 405 kts 257°
2026-05-04 13:02 56.54007 20.82789 37750 ft 405 kts 257°
2026-05-04 13:02 56.53422 20.77806 37868 ft 405 kts 257°
2026-05-04 13:03 56.52835 20.72819 37848 ft 404 kts 257°
2026-05-04 13:03 56.51660 20.62889 37842 ft 403 kts 257°
2026-05-04 13:04 56.50477 20.52962 37841 ft 403 kts 257°
2026-05-04 13:04 56.49287 20.43056 37843 ft 402 kts 257°
2026-05-04 13:05 56.48101 20.33252 37841 ft 401 kts 257°
2026-05-04 13:05 56.46894 20.23341 37839 ft 401 kts 257°
2026-05-04 13:06 56.45695 20.13576 37839 ft 400 kts 256°
2026-05-04 13:06 56.44483 20.03768 37841 ft 399 kts 256°
2026-05-04 13:07 56.43266 19.93987 37841 ft 399 kts 256°
2026-05-04 13:07 56.42042 19.84215 37839 ft 398 kts 256°
2026-05-04 13:08 56.40813 19.74476 37839 ft 398 kts 256°
2026-05-04 13:08 56.39577 19.64747 37840 ft 397 kts 256°
2026-05-04 13:09 56.38335 19.55033 37840 ft 397 kts 256°
2026-05-04 13:09 56.37087 19.45341 37843 ft 396 kts 256°
2026-05-04 13:10 56.35832 19.35662 37842 ft 396 kts 256°
2026-05-04 13:10 56.34571 19.25996 37840 ft 396 kts 256°
2026-05-04 13:11 56.33303 19.16343 37838 ft 395 kts 256°
2026-05-04 13:11 56.32030 19.06715 37837 ft 395 kts 256°
2026-05-04 13:12 56.30751 18.97087 37836 ft 395 kts 256°
2026-05-04 13:12 56.29478 18.87473 37837 ft 395 kts 256°
2026-05-04 13:13 56.28404 18.77775 37833 ft 395 kts 258°
2026-05-04 13:13 56.27360 18.68070 37835 ft 395 kts 257°
2026-05-04 13:14 56.26284 18.58388 37836 ft 395 kts 257°
2026-05-04 13:14 56.25191 18.48704 37835 ft 395 kts 257°
2026-05-04 13:15 56.24091 18.39036 37833 ft 395 kts 257°
2026-05-04 13:15 56.22978 18.29364 37828 ft 395 kts 256°
2026-05-04 13:16 56.21580 18.19819 37827 ft 395 kts 254°
2026-05-04 13:16 56.20162 18.10352 37829 ft 395 kts 254°
2026-05-04 13:17 56.18728 18.00833 37830 ft 395 kts 254°
2026-05-04 13:17 56.17282 17.91302 37830 ft 396 kts 254°
2026-05-04 13:18 56.15829 17.81787 37834 ft 396 kts 253°
2026-05-04 13:18 56.14367 17.72261 37832 ft 396 kts 253°
2026-05-04 13:19 56.12895 17.62730 37831 ft 396 kts 253°
2026-05-04 13:19 56.11417 17.53214 37835 ft 397 kts 253°
2026-05-04 13:20 56.09929 17.43692 37837 ft 397 kts 253°
2026-05-04 13:20 56.08434 17.34172 37836 ft 397 kts 253°
2026-05-04 13:21 56.06930 17.24652 37840 ft 397 kts 253°
2026-05-04 13:21 56.05417 17.15135 37841 ft 398 kts 253°
2026-05-04 13:22 56.03899 17.05634 37839 ft 398 kts 253°
2026-05-04 13:22 56.02369 16.96112 37840 ft 398 kts 253°
2026-05-04 13:23 56.00836 16.86619 37840 ft 398 kts 253°
2026-05-04 13:23 55.99140 16.77215 37846 ft 398 kts 249°
2026-05-04 13:24 55.97243 16.67931 37847 ft 398 kts 250°
2026-05-04 13:24 55.95358 16.58645 37842 ft 398 kts 250°
2026-05-04 13:25 55.92512 16.44741 37848 ft 398 kts 249°
2026-05-04 13:25 55.90602 16.35479 37848 ft 398 kts 249°
2026-05-04 13:26 55.88699 16.26295 37846 ft 398 kts 249°
2026-05-04 13:26 55.86773 16.17043 37854 ft 398 kts 249°
2026-05-04 13:27 55.84839 16.07795 37857 ft 399 kts 249°
2026-05-04 13:27 55.82900 15.98563 37856 ft 399 kts 249°
2026-05-04 13:28 55.81279 15.90878 37862 ft 399 kts 249°
2026-05-04 13:28 55.79323 15.81641 37863 ft 399 kts 249°
2026-05-04 13:29 55.77358 15.72406 37748 ft 400 kts 249°
2026-05-04 13:29 55.76361 15.67739 37478 ft 398 kts 249°
2026-05-04 13:29 55.75380 15.63154 37207 ft 396 kts 249°
2026-05-04 13:30 55.74416 15.58658 36949 ft 394 kts 249°
2026-05-04 13:30 55.73440 15.54118 36687 ft 393 kts 249°
2026-05-04 13:30 55.72464 15.49590 36434 ft 392 kts 249°
2026-05-04 13:30 55.71490 15.45078 36174 ft 391 kts 249°
2026-05-04 13:31 55.70518 15.40585 35929 ft 389 kts 249°
2026-05-04 13:31 55.69537 15.36062 35677 ft 388 kts 249°
2026-05-04 13:31 55.68582 15.31664 35398 ft 387 kts 249°
2026-05-04 13:31 55.67617 15.27199 34813 ft 388 kts 251°
2026-05-04 13:32 55.67025 15.22539 34073 ft 390 kts 263°
2026-05-04 13:32 55.67031 15.17708 33173 ft 394 kts 270°
2026-05-04 13:32 55.67207 15.12848 32198 ft 396 kts 270°
2026-05-04 13:32 55.67401 15.07969 31246 ft 398 kts 270°
2026-05-04 13:33 55.67583 15.03075 30311 ft 398 kts 270°
2026-05-04 13:33 55.67749 14.98169 29201 ft 401 kts 270°
2026-05-04 13:33 55.67903 14.93228 28255 ft 400 kts 270°
2026-05-04 13:33 55.68050 14.88342 27447 ft 396 kts 270°
2026-05-04 13:34 55.68192 14.83491 26665 ft 392 kts 270°
2026-05-04 13:34 55.68330 14.78684 25894 ft 389 kts 270°
2026-05-04 13:34 55.68464 14.73912 25138 ft 386 kts 270°
2026-05-04 13:34 55.68596 14.69188 24406 ft 383 kts 270°
2026-05-04 13:35 55.68726 14.64488 23700 ft 380 kts 270°
2026-05-04 13:35 55.68976 14.55190 22142 ft 374 kts 270°
2026-05-04 13:35 55.69097 14.50597 21386 ft 371 kts 270°
2026-05-04 13:36 55.69216 14.46043 20653 ft 368 kts 270°
2026-05-04 13:36 55.69332 14.41524 19932 ft 366 kts 271°
2026-05-04 13:36 55.69445 14.37036 19236 ft 363 kts 271°
2026-05-04 13:36 55.69556 14.32581 18544 ft 361 kts 271°
2026-05-04 13:37 55.69664 14.28155 17833 ft 358 kts 271°
2026-05-04 13:37 55.69771 14.23782 17253 ft 351 kts 271°
2026-05-04 13:37 55.69873 14.19503 16695 ft 345 kts 271°
2026-05-04 13:37 55.69972 14.15286 16135 ft 339 kts 271°
2026-05-04 13:38 55.70068 14.11134 15590 ft 335 kts 271°
2026-05-04 13:38 55.70162 14.07036 15040 ft 330 kts 271°
2026-05-04 13:38 55.70253 14.02990 14523 ft 327 kts 271°
2026-05-04 13:38 55.70342 13.98999 14150 ft 320 kts 271°
2026-05-04 13:39 55.70428 13.95090 13913 ft 320 kts 271°
2026-05-04 13:39 55.70513 13.91133 13668 ft 321 kts 271°
2026-05-04 13:39 55.70596 13.87192 13307 ft 319 kts 271°
2026-05-04 13:39 55.70679 13.83269 12795 ft 317 kts 271°
2026-05-04 13:40 55.70759 13.79392 12353 ft 312 kts 271°
2026-05-04 13:40 55.70836 13.75580 11863 ft 307 kts 271°
2026-05-04 13:40 55.70911 13.71811 11394 ft 304 kts 271°
2026-05-04 13:40 55.70985 13.68077 10900 ft 301 kts 271°
2026-05-04 13:41 55.71056 13.64376 10411 ft 299 kts 271°
2026-05-04 13:41 55.71126 13.60701 9928 ft 297 kts 271°
2026-05-04 13:41 55.71195 13.57048 9419 ft 295 kts 271°
2026-05-04 13:42 55.71327 13.49855 8462 ft 289 kts 271°
2026-05-04 13:42 55.71390 13.46302 7989 ft 287 kts 271°
2026-05-04 13:42 55.71452 13.42786 7526 ft 284 kts 271°
2026-05-04 13:42 55.71512 13.39295 7071 ft 282 kts 271°
2026-05-04 13:43 55.71570 13.35831 6597 ft 280 kts 271°
2026-05-04 13:43 55.71627 13.32395 6126 ft 278 kts 271°
2026-05-04 13:43 55.71675 13.28947 5675 ft 283 kts 271°
2026-05-04 13:43 55.71719 13.25502 5534 ft 274 kts 271°
2026-05-04 13:44 55.71759 13.22200 5376 ft 262 kts 271°
2026-05-04 13:44 55.71797 13.19026 5175 ft 253 kts 271°
2026-05-04 13:44 55.71831 13.15961 4986 ft 245 kts 271°
2026-05-04 13:44 55.71868 13.12991 4777 ft 236 kts 271°
2026-05-04 13:45 55.71902 13.10129 4575 ft 229 kts 271°
2026-05-04 13:45 55.71934 13.07344 4364 ft 222 kts 271°
2026-05-04 13:45 55.71959 13.04633 4160 ft 217 kts 271°
2026-05-04 13:45 55.71981 13.01994 3960 ft 213 kts 271°
2026-05-04 13:46 55.72001 12.99383 3697 ft 210 kts 271°
2026-05-04 13:46 55.72022 12.96832 3441 ft 204 kts 271°
2026-05-04 13:46 55.71976 12.94345 3185 ft 201 kts 260°
2026-05-04 13:46 55.71599 12.91986 2930 ft 197 kts 255°
2026-05-04 13:47 55.71199 12.89700 2749 ft 191 kts 255°
2026-05-04 13:47 55.70811 12.87495 2608 ft 183 kts 255°
2026-05-04 13:47 55.70458 12.85430 2524 ft 167 kts 255°
2026-05-04 13:47 55.70122 12.83540 2370 ft 156 kts 255°
2026-05-04 13:48 55.69792 12.81706 2221 ft 161 kts 255°
2026-05-04 13:48 55.69451 12.79828 2072 ft 158 kts 255°
2026-05-04 13:48 55.69100 12.77980 1898 ft 160 kts 249°
2026-05-04 13:48 55.68509 12.76320 1675 ft 158 kts 234°
2026-05-04 13:49 55.67769 12.74945 1460 ft 151 kts 228°
2026-05-04 13:49 55.66984 12.73680 1254 ft 152 kts 227°
2026-05-04 13:49 55.66227 12.72484 1056 ft 138 kts 228°
2026-05-04 13:49 55.65548 12.71421 948 ft 128 kts 227°
2026-05-04 13:50 55.64830 12.70283 839 ft 152 kts 227°
2026-05-04 13:50 55.64025 12.69083 670 ft 147 kts 225°
2026-05-04 13:50 55.63289 12.67943 355 ft 135 kts 227°
2026-05-04 13:50 55.62623 12.66885 95 ft 124 kts 226°
2026-05-04 13:51 55.62020 12.65934 25 ft 100 kts 221°
2026-05-04 13:51 55.61661 12.65384 22 ft 37 kts 223°
2026-05-04 13:51 55.61613 12.65058 27 ft 19 kts 286°
2026-05-04 13:51 55.61674 12.64898 23 ft 10 kts 313°
2026-05-04 13:52 55.61825 12.64789 27 ft 15 kts 358°
2026-05-04 13:52 55.61926 12.64843 25 ft 16 kts 35°
2026-05-04 13:52 55.62025 12.64965 26 ft 19 kts 33°
2026-05-04 13:53 55.62116 12.65071 26 ft 10 kts 34°
2026-05-04 13:53 55.62130 12.65087 24 ft 0 kts 34°
2026-05-04 13:53 55.62145 12.65105 26 ft 6 kts 34°
2026-05-04 13:54 55.62284 12.65056 26 ft 16 kts 302°
2026-05-04 13:54 55.62350 12.64876 25 ft 18 kts 302°
2026-05-04 13:54 55.62498 12.64475 24 ft 20 kts 302°
2026-05-04 13:55 55.62568 12.64287 25 ft 16 kts 308°
2026-05-04 13:55 55.62750 12.64376 23 ft 8 kts 25°
2026-05-04 13:55 55.62759 12.64389 25 ft 2 kts 48°
2026-05-04 13:56 55.62760 12.64431 23 ft 5 kts 98°
2026-05-04 13:56 55.62757 12.64456 26 ft 3 kts 101°
2026-05-04 13:56 55.62755 12.64475 24 ft 0 kts 101°